Regional Weather Roundup
Issued by NWS Bismarck, ND

Home | Current Version | Previous Version | Text Only | Print | Product List | Glossary On
Versions: 1 2 3 4 5 6 7 8 9 10 11 12 13 14 15 16 17 18 19 20 21 22 23 24 25 26 27 28 29 30 31 32 33 34 35 36 37 38 39 40 41 42 43 44 45 46 47 48 49 50
000
ASUS43 KBIS 201210
RWRBIS

NWR BROADCAST TEXT
NATIONAL WEATHER SERVICE BISMARCK ND
600 AM CST FRI JAN 20 2017

NOTE: "FAIR" INDICATES FEW OR NO CLOUDS BELOW 12,000 FEET WITH NO
SIGNIFICANT WEATHER AND/OR OBSTRUCTIONS TO VISIBILITY.


CITY           SKY/WX    TMP DP  RH WIND       PRES   REMARKS
WILLISTON      FAIR      16  14  92 CALM      29.41R
MINOT          FAIR      16  13  88 SE7       29.39S WCI   6
MINOT AFB      FOG       15  13  90 CALM      29.38S VSB 0
BISMARCK       FOG       22  21  96 CALM      29.43S VSB 1/4
DICKINSON      FAIR      20  17  88 W9        29.35F WCI   9
GARRISON         N/A     10   7  87 CALM      29.41S
HETTINGER ARPT FAIR      22  18  85 NW8       29.38S WCI  12
JAMESTOWN      FOG       33  33 100 SE7       29.44F VSB 1/2
CARRINGTON     MIX PCPN  34  32  93 SE10      29.46S
HAZEN          CLOUDY   N/A N/A N/A SE3       29.44S
MANDAN         FOG       23  21  93 S5        29.42S VSB 1/4 WCI  17
RUGBY          FOG       21  21 100 S8        29.43F VSB 3/4 WCI  12
STANLEY        FAIR      18  18 100 CALM      29.39S
TIOGA          FAIR      14  14 100 W6        29.39F WCI   5
WATFORD CITY   FAIR      19  18  93 SW3       29.40S
$$

CITY           SKY/WX    TMP DP  RH WIND       PRES   REMARKS
GRAND FORKS    FOG       35  33  92 SE10      29.52S VSB 3/4
GRAND FORKS AF CLOUDY    34  32  93 SE9       29.50F FOG
DEVILS LAKE    CLOUDY    32  31  96 SE3       29.46F FOG
FARGO          CLOUDY    50  36  58 SE9       29.52F
CAVALIER         N/A     34  34 100 S8        29.50S FOG
GRAFTON        FOG       34  34 100 SE13      29.53S VSB 1/2
GWINNER        CLOUDY    34  34 100 SE13      29.48F VSB 1
ROLLA            N/A    N/A N/A N/A MISG        N/A
$$

CITY           SKY/WX    TMP DP  RH WIND       PRES   REMARKS
ABERDEEN       CLOUDY    34  31  88 SE6       29.44F FOG
MOBRIDGE       FOG       25  21  85 N7        29.36F VSB 1/2 WCI  17
BUFFALO          N/A     29  23  78 NW22      29.31F WCI  15
RAPID CITY     FAIR      27  19  72 NW7       29.37S WCI  19
GLASGOW        CLOUDY    29  25  85 W7        29.42F
SIDNEY         FAIR      17  14  88 S7        29.42S WCI   8
WOLF POINT     FAIR      20  17  88 SW5       29.43F WCI  13
GLENDIVE       FAIR      13  11  92 SE3       29.43S
MILES CITY     MOCLDY    17  14  88 S5        29.46S WCI  10
BAKER          FAIR      15  13  91 NW3       29.42F
$$

CITY           SKY/WX    TMP DP  RH WIND       PRES   REMARKS
BILLINGS       DRIZZLE   34  28  79 SW14      29.48S
GREAT FALLS    FAIR      33  25  72 SW13      29.45S
REGINA         CLEAR     16  16 100 E8        29.36F WCI   5
ESTEVAN        PTCLDY    12  10  92 VRB2      29.38S
$$





USA.gov is the U.S. government's official web portal to all federal, state and local government web resources and services.